Regional Weather Roundup
Issued by NWS

Home | Current Version | Previous Version | Graphics & Text | Print | Product List | Glossary On
Versions: 1 2 3 4 5 6 7 8 9 10 11 12 13 14 15 16 17 18 19 20 21 22 23 24 25 26 27 28 29 30 31 32 33 34 35 36 37 38 39 40 41 42 43 44 45 46 47 48 49 50
000
ASUS43 KOAX 211902
RWRNE

WEATHER ROUNDUP FOR NEBRASKA
NATIONAL WEATHER SERVICE OMAHA NE
200 PM CDT SAT APR 21 2018

NOTES: SATELLITE DATA IS BEING USED TO AUGMENT CLOUD COVER ABOVE
       12000 FEET.
       "FAIR" INDICATES FEW OR NO CLOUDS BELOW 12,000 FEET WITH NO
       SIGNIFICANT WEATHER AND/OR OBSTRUCTIONS TO VISIBILITY.


NEZ001>004-019>022-054>056-212000-
NEBRASKA PANHANDLE

CITY           SKY/WX    TMP DP  RH WIND       PRES   REMARKS
SCOTTSBLUFF    LGT RAIN  39  39 100 SE6       30.21F WCI  35
ALLIANCE       CLOUDY    38  37  97 S7        30.21F WCI  33
CHADRON        LGT RAIN  38  36  92 SE3       30.22F
GORDON         CLOUDY    42  37  85 S6        30.23S
KIMBALL        LGT RAIN  38  36  93 CALM      30.19F
SIDNEY         LGT RAIN  37  33  85 E5        30.21F FOG     WCI  33
$$

NEZ057>060-069>072-079>082-212000-
SOUTHWEST NEBRASKA

CITY           SKY/WX    TMP DP  RH WIND       PRES   REMARKS
NORTH PLATTE   CLOUDY    43  38  82 E10       30.24F
IMPERIAL       CLOUDY    41  39  93 NE6       30.22F
LEXINGTON      DRIZZLE   45  39  80 E7        30.23F
MCCOOK         CLOUDY    44  40  85 NE10      30.21F
OGALLALA       CLOUDY    41  38  89 NE6       30.23F
$$

NEZ005>010-023>029-035>040-094-212000-
NORTH CENTRAL NEBRASKA

CITY           SKY/WX    TMP DP  RH WIND       PRES   REMARKS
VALENTINE      CLOUDY    45  38  76 SE12      30.27F
AINSWORTH      LGT RAIN  42  40  91 E6        30.28F
BROKEN BOW     LGT RAIN  45  37  73 NE9       30.24F
O`NEILL        CLOUDY    47  38  70 N8        30.30F
ORD            CLOUDY    45  36  70 E8        30.25F
THEDFORD       DRIZZLE   43  39  86 E10       30.27F
$$

NEZ041-046>049-061>064-073>077-083>087-212000-
SOUTH CENTRAL NEBRASKA

CITY           SKY/WX    TMP DP  RH WIND       PRES   REMARKS
GRAND ISLAND   CLOUDY    44  41  89 E12       30.25F
AURORA         CLOUDY    44  41  88 SE7       30.25S
HASTINGS       CLOUDY    43  41  93 E5        30.24S
HEBRON         CLOUDY    46  41  85 E12       30.24S
HOLDREGE       CLOUDY    43  40  89 NE10      30.21F
KEARNEY        LGT RAIN  43  38  82 NE9       30.23F
YORK             N/A     46  45  93 E10       30.25F
$$

NEZ011>018-030>034-042>045-212000-
NORTHEAST NEBRASKA

CITY           SKY/WX    TMP DP  RH WIND       PRES   REMARKS
NORFOLK        CLOUDY    50  30  46 E9        30.27R
ALBION         CLOUDY    49  33  54 NE3       30.27S
BLAIR          CLOUDY    53  30  41 E6        30.27F
COLUMBUS       CLOUDY    49  30  48 E8        30.29F
FREMONT        CLOUDY    53  29  39 SE3       30.28S
TEKAMAH        CLOUDY    54  28  36 E9        30.28F
WAYNE          CLOUDY    48  34  57 NE7       30.30S
$$

NEZ050>053-065>068-078-088>093-212000-
SOUTHEAST NEBRASKA

CITY           SKY/WX    TMP DP  RH WIND       PRES   REMARKS
LINCOLN        CLOUDY    51  31  46 NE13      30.28F
OMAHA EPPLEY   CLOUDY    54  29  38 NE3       30.27F
BEATRICE       CLOUDY    47  43  85 E10       30.24F
FALLS CITY     CLOUDY    48  46  93 NW9       30.21F
NEBRASKA CITY  DRIZZLE   48  40  75 W3        30.27F
PLATTSMOUTH    CLOUDY    53  28  38 CALM      30.27F
$$

NEZ044-045-051>053-067-212000-
OMAHA AREA

CITY           SKY/WX    TMP DP  RH WIND       PRES   REMARKS
OMAHA EPPLEY   CLOUDY    54  29  38 NE3       30.27F
BLAIR          CLOUDY    53  30  41 E6        30.27F
FREMONT        CLOUDY    53  29  39 SE3       30.28S
MILLARD        CLOUDY    54  32  43 SE3       30.28S
OFFUTT AFB     CLOUDY    54  29  38 SE5       30.26F
PLATTSMOUTH    CLOUDY    53  28  38 CALM      30.27F
WAHOO          MOCLDY    53  25  34 E5        30.28F
$$




USA.gov is the U.S. government's official web portal to all federal, state and local government web resources and services.